Meteo Giornale » Osservazioni meteo Svizzera » Lugano

ore: 07:50 - Osservazioni Meteo Lugano
Lat. 46° 0' N Lon. 8° 58' E Alt. 273 metri s.l.m.

nuvoloso Europe/Zurich

14 °C

Nuvoloso

Temp. 24 Ore

13 °C

23 °C

Nord

1.8 Km/h

Dew point 12 °C

Umidità 87 %

Visibilità  10 Km

Il sole sorge alle ore 05:34

Il sole tramonta alle ore 21:09

Data e Ora Cielo e Fenomeni T °C DP °C Um. % Pres. hPa Vis. km Vento km/h
Oggi h: 07:50 nuvoloso Nuvoloso 14 12 87 1019 10 N 1.8
Oggi h: 07:20 nuvoloso Nuvoloso 13 12 93 1019 10 N 3.7
Oggi h: 06:50 nuvoloso Nuvoloso 13 11 87 1019 10 N 7.4
Oggi h: 05:50 nuvoloso Nuvoloso 13 12 93 1018 10 N 5.5
Oggi h: 05:20 poco_nuvoloso Poco Nuvoloso 13 11 87 1018 10 N 3.7
Oggi h: 04:50 molto_nuvoloso Molto Nuvoloso 13 12 93 1018 10 N 5.5
Oggi h: 04:20 molto_nuvoloso Molto Nuvoloso 14 12 87 1018 10 N 7.4
Oggi h: 03:50 molto_nuvoloso Molto Nuvoloso 13 12 93 1018 10 N/NE 7.4
Oggi h: 03:20 molto_nuvoloso Molto Nuvoloso 14 12 87 1018 10 N 5.5
Oggi h: 02:50 nuvoloso Nuvoloso 13 12 93 1018 10 N 1.8
Oggi h: 02:20 sereno Sereno 13 12 93 1017 10 N 5.5
Oggi h: 01:50 sereno Sereno 14 12 87 1017 10 N 5.5
Oggi h: 01:20 sereno Sereno 14 12 87 1017 10 N 5.5
Oggi h: 00:50 sereno Sereno 13 12 93 1017 10 N 7.4
Oggi h: 00:20 sereno Sereno 14 12 87 1016 10 N 3.7
Ieri h: 23:50 sereno Sereno 15 12 82 1016 10 N 1.8
Ieri h: 23:20 sereno Sereno 15 12 82 1016 10 N 1.8
Ieri h: 22:50 sereno Sereno 16 12 77 1016 10 N 3.7
Ieri h: 22:20 sereno Sereno 16 12 77 1016 10 N 5.5
Ieri h: 21:50 sereno Sereno 17 13 77 1015 10 N 3.7
Ieri h: 21:20 poco_nuvoloso Poco Nuvoloso 17 13 77 1015 10 N 3.7
Ieri h: 20:50 sereno Sereno 19 12 63 1014 10 N 5.5
Ieri h: 20:20 sereno Sereno 20 12 59 1014 10 N 5.5
Ieri h: 19:50 sereno Sereno 21 13 60 1014 10 N 5.5
Ieri h: 19:20 poco_nuvoloso Poco Nuvoloso 22 12 53 1014 10 S 9.3
Ieri h: 18:50 poco_nuvoloso Poco Nuvoloso 22 11 49 1014 10 S 9.3
Ieri h: 17:50 poco_nuvoloso Poco Nuvoloso 22 11 49 1014 10 S 11.1
Ieri h: 16:50 poco_nuvoloso Poco Nuvoloso 22 10 46 1014 10 S 11.1
Ieri h: 16:20 poco_nuvoloso Poco Nuvoloso 23 12 49 1014 10 S 11.1
Ieri h: 15:50 poco_nuvoloso Poco Nuvoloso 22 11 49 1014 10 S 13
Ieri h: 15:20 poco_nuvoloso Poco Nuvoloso 22 11 49 1015 10 S/SO 13
Ieri h: 14:50 molto_nuvoloso Molto Nuvoloso 21 11 52 1015 10 S 13
Ieri h: 14:20 molto_nuvoloso Molto Nuvoloso 21 10 49 1015 10 S 13
Ieri h: 13:50 molto_nuvoloso Molto Nuvoloso 21 11 52 1016 10 S 11.1
Ieri h: 13:20 molto_nuvoloso Molto Nuvoloso 20 11 56 1016 10 S 13
Ieri h: 12:50 molto_nuvoloso Molto Nuvoloso 20 11 56 1016 10 S 11.1
Ieri h: 12:20 molto_nuvoloso Molto Nuvoloso 19 11 59 1017 10 S/SO 9.3
Ieri h: 11:50 molto_nuvoloso Molto Nuvoloso 18 11 63 1017 10 S 11.1
Ieri h: 11:20 molto_nuvoloso Molto Nuvoloso 18 11 63 1017 10 S 9.3
Ieri h: 10:50 molto_nuvoloso Molto Nuvoloso 18 11 63 1017 10 S 9.3
Ieri h: 10:20 molto_nuvoloso Molto Nuvoloso 18 11 63 1017 10 S 9.3
Ieri h: 09:50 molto_nuvoloso Molto Nuvoloso 17 11 67 1017 10 S 9.3
Ieri h: 09:20 molto_nuvoloso Molto Nuvoloso 16 12 77 1017 10 S 7.4
Ieri h: 08:50 molto_nuvoloso Molto Nuvoloso 16 12 77 1018 10 S/SO 9.3